Regional Weather Roundup
Issued by NWS

Home | Current Version | Previous Version | Graphics & Text | Print | Product List | Glossary On
Versions: 1 2 3 4 5 6 7 8 9 10 11 12 13 14 15 16 17 18 19 20 21 22 23 24 25 26 27 28 29 30 31 32 33 34 35 36 37 38 39 40 41 42 43 44 45 46 47 48 49 50
000
ASUS45 KBOU 311507
RWRCO

WEATHER ROUNDUP FOR COLORADO
NATIONAL WEATHER SERVICE DENVER/BOULDER CO
900 AM MDT MON AUG 31 2015

NOTE: "FAIR" INDICATES FEW OR NO CLOUDS BELOW 12000 FEET WITH NO
SIGNIFICANT WEATHER AND/OR OBSTRUCTIONS TO VISIBILITY.

COZ001>005-013-030-031-311600-
...NORTHWEST COLORADO...

CITY           SKY/WX    TMP DP  RH WIND       PRES   REMARKS
CRAIG          PTSUNNY   63  51  65 NE12      30.24S
HAYDEN         NOT AVBL
MEEKER         PTSUNNY   59  53  80 E6        30.26R
MOUNT WERNER   NOT AVBL
STEAMBOAT SPGS CLOUDY    54  51  91 CALM      30.29R
WALDEN         CLOUDY    52  46  82 E7        30.34S
$$

COZ006>008-011-311600-
...WEST CENTRAL VALLEYS...

CITY           SKY/WX    TMP DP  RH WIND       PRES   REMARKS
GRAND JUNCTION CLOUDY    63  59  87 CALM      30.19R
MONTROSE       CLOUDY    61  55  81 E3        30.25R
EAGLE          PTSUNNY   57  55  94 CALM      30.32R
RIFLE          PTSUNNY   61  57  87 CALM      30.24R
DELTA          RAIN      66  58  75 CALM      30.22R
NUCLA          CLOUDY    68  48  49 E5        30.27S
$$

COZ017>023-064>068-311600-
...SOUTHWEST COLORADO...

CITY           SKY/WX    TMP DP  RH WIND       PRES   REMARKS
DURANGO        CLOUDY    62  48  60 E5        30.28S
CORTEZ         SUNNY     67  51  56 N6        30.23S
PAGOSA SPRINGS PTSUNNY   63  45  52 E3        30.36S
TELLURIDE      CLOUDY    57  45  64 CALM      30.44S
WOLF CREEK PAS MOSUNNY   48  41  76 SW10      30.64S
$$

COZ009-010-012-014-032>034-037-058>063-311600-
...CENTRAL COLORADO...

CITY           SKY/WX    TMP DP  RH WIND       PRES   REMARKS
ASPEN          CLOUDY    55  51  86 NW5       30.34R
BUENA VISTA    CLOUDY    60  45  57 CALM      30.34R
COPPER MTN     CLOUDY    46  37  71 W14       30.60S
BERTHOUD PASS  CLOUDY    37  27  65 NW24G33   30.62R HAZE
COTTONWOOD PAS CLOUDY    59  41  51 N5        30.46R
GUNNISON       PTSUNNY   55  48  76 CALM      30.38S
KREMMLING      LGT RAIN  55  46  71 NE5       30.34S
LEADVILLE      CLOUDY    54  41  61 CALM      30.45R
MONARCH PASS   PTSUNNY   45  39  81 W17       30.69S
SALIDA         CLOUDY    64  46  53 CALM      30.38R
SUNLIGHT       PTSUNNY   52  46  82 CALM      30.55S
WILKERSON PASS CLOUDY    50  36  57 W9        30.57R
$$

COZ069>075-311600-
...SAN LUIS VALLEY/SANGRE DE CRISTO MOUNTAINS...

CITY           SKY/WX    TMP DP  RH WIND       PRES   REMARKS
ALAMOSA        PTSUNNY   60  45  57 CALM      30.32R
LA VETA PASS   CLOUDY    54  41  62 MISG      30.46R
SAGUACHE       PTSUNNY   57  45  62 NW8       30.36R
$$

COZ035-036-038>040-311600-
...NORTHERN COLORADO FRONT RANGE...

CITY           SKY/WX    TMP DP  RH WIND       PRES   REMARKS
DENVER INTL AP PTSUNNY   74  46  36 E3        30.12R
DMNS CITY PARK   N/A     72  51  47 E12G17    30.12R
AURORA         PTSUNNY   74  47  37 E6        30.15R
FRONT RANGE AP PTSUNNY   73  45  35 NE7       30.13R
ERIE MUNI ARPT CLOUDY    74  48  40 E3        30.10R
BOULDER MUN AP CLOUDY    72  50  46 E5        30.10R
CENTENNIAL     CLOUDY    71  50  47 S5        30.16R
BROOMFIELD     PTSUNNY   73  46  38 E5        30.13R
FORT COLLINS   CLOUDY    72  50  46 E3        30.10R
LONGMONT       CLOUDY    71  53  51 CALM      30.11R
$$

COZ041-046-047-076>085-087-088-311600-
...PIKES PEAK/PALMER DIVIDE AND SOUTHERN FOOTHILLS...

CITY           SKY/WX    TMP DP  RH WIND       PRES   REMARKS
COLO. SPRINGS  PTSUNNY   73  44  35 W7        30.17R
A. F. ACADEMY  CLOUDY    72  45  37 N6        30.19R
ELLICOTT       NOT AVBL
FALCON         PTSUNNY   74  43  32 MISG      30.22R
FORT CARSON    CLOUDY    73  49  42 SW6       30.14R
LIMON          PTSUNNY   76  47  35 N21G30    30.10R
MONUMENT HILL  PTSUNNY   64  43  45 CALM      30.24R
TRINIDAD       SUNNY     76  48  37 N5        30.13R
$$

COZ042>045-048>051-090-091-311600-
...NORTHEAST COLORADO...

CITY           SKY/WX    TMP DP  RH WIND       PRES   REMARKS
GREELEY ARPT   CLOUDY    68  55  64 CALM      30.09R
AKRON          PTSUNNY   76  49  38 N16G26    30.04F
BURLINGTON     SUNNY     75  51  43 NW12      30.02R
WRAY           SUNNY     78  50  37 CALM      29.99R
STERLING       PTSUNNY   72  55  56 SE3       30.00F
HOLYOKE        SUNNY     79  50  36 NW9       30.00R
FORT MORGAN    PTSUNNY   71  54  54 CALM      30.07R
$$

COZ086-089-092>099-311600-
...SOUTHEAST COLORADO...

CITY           SKY/WX    TMP DP  RH WIND       PRES   REMARKS
PUEBLO         PTSUNNY   79  50  36 W6        30.06R
LA JUNTA       SUNNY     75  52  44 W8        30.01R
LAMAR          SUNNY     68  54  60 N5        29.95S HAZE
SPRINGFIELD    NOT AVBL
$$




USA.gov is the U.S. government's official web portal to all federal, state and local government web resources and services.